Location: North Evanston
(42.0634°N, 87.6976°W)
Time: 10:52:52
(UTC+00:00)

Courier 1B - All Passes

Search period start: 15 May 2026 00:00
Search period end: 25 May 2026 00:00
Orbit: 962 x 1209 km, 28.3° (Epoch: 14 May)

Date Brightness Start Highest point End Pass type
(mag) Time Alt. Az. Time Alt. Az. Time Alt. Az.
15 May - 13:44:06 10° SSW 13:48:24 16° SSE 13:52:50 10° ESE daylight
15 May - 15:35:26 10° SW 15:41:33 27° S 15:47:51 10° ESE daylight
15 May - 17:28:40 10° WSW 17:34:57 27° S 17:41:18 10° SE daylight
15 May - 19:23:31 10° WSW 19:28:11 17° SSW 19:32:51 10° SSE daylight
16 May - 12:51:49 10° S 12:54:45 13° SSE 12:57:44 10° SE daylight
16 May - 14:42:00 10° SW 14:47:46 25° SSE 14:53:44 10° ESE daylight
16 May - 16:34:49 10° WSW 16:41:06 28° S 16:47:32 10° SE daylight
16 May - 18:29:04 10° WSW 18:34:25 20° SSW 18:39:48 10° SSE daylight
17 May - 13:48:44 10° SSW 13:54:01 22° SSE 13:59:29 10° ESE daylight
17 May - 15:41:06 10° SW 15:47:16 28° S 15:53:40 10° ESE daylight
17 May - 17:34:52 10° WSW 17:40:37 23° SSW 17:46:28 10° SE daylight
17 May - 19:31:53 10° SW 19:33:44 11° SSW 19:35:34 10° SSW daylight
18 May - 12:55:44 10° SSW 13:00:19 18° SSE 13:05:04 10° ESE daylight
18 May - 14:47:29 10° SW 14:53:27 27° S 14:59:41 10° ESE daylight
18 May - 16:40:52 10° WSW 16:46:48 25° S 16:52:55 10° SE daylight
18 May - 18:36:13 10° SW 18:40:00 14° SSW 18:43:48 10° S daylight
19 May - 12:03:07 10° S 12:06:40 15° SSE 12:10:19 10° SE daylight
19 May - 13:54:01 10° SW 13:59:41 26° S 14:05:38 10° ESE daylight
19 May - 15:47:01 10° WSW 15:53:00 27° S 15:59:13 10° SE daylight
19 May - 17:41:33 10° WSW 17:46:15 17° SSW 17:51:01 10° SSE daylight
20 May - 11:11:31 10° SSE 11:13:05 11° SSE 11:14:39 10° SE daylight
20 May - 13:00:42 10° SW 13:05:58 23° SSE 13:11:28 10° ESE daylight
20 May - 14:53:17 10° WSW 14:59:12 27° S 15:05:23 10° SE daylight
20 May - 16:47:16 10° WSW 16:52:29 20° SSW 16:57:50 10° SSE daylight
21 May - 12:07:35 10° SSW 12:12:18 20° SSE 12:17:11 10° ESE daylight
21 May - 13:59:40 10° SW 14:05:26 27° S 14:11:29 10° ESE daylight
21 May - 15:53:14 10° WSW 15:58:43 23° SSW 16:04:23 10° SE daylight
21 May - 17:49:42 10° SW 17:51:49 11° SSW 17:53:58 10° S daylight
22 May - 11:14:44 10° SSW 11:18:40 16° SSE 11:22:43 10° ESE daylight
22 May - 13:06:10 10° SW 13:11:42 26° S 13:17:29 10° ESE daylight
22 May - 14:59:21 10° WSW 15:04:57 25° S 15:10:47 10° SE daylight
22 May - 16:54:25 10° SW 16:58:07 14° SSW 17:01:52 10° S daylight
23 May - 10:22:23 10° S 10:25:05 13° SSE 10:27:49 10° SE daylight
23 May - 12:12:48 10° SW 12:18:00 24° S 12:23:26 10° ESE daylight
23 May - 14:05:36 10° WSW 14:11:11 26° S 14:17:03 10° SE daylight
23 May - 15:59:56 10° WSW 16:04:24 17° SSW 16:08:58 10° SSE daylight
24 May - 11:19:34 10° SSW 11:24:20 21° SSE 11:29:18 10° ESE daylight
24 May - 13:11:58 10° SW 13:17:28 26° S 13:23:14 10° SE daylight
24 May - 15:05:47 10° WSW 15:10:40 20° SSW 15:15:43 10° SSE daylight
